Bookmark and Share
Track history (hours):
 

USTS Kennedy (United States)

Training ship of Massachusetts Maritime Academy. Ex Cape Bon, ex Velma Lykes, ex Enterprise.

Ship's website: http://www.maritime.edu/

More information available from US FCC via Universal Licensing System and Coast Guard Vessel Documentation Center.

Last reported at 2014-Feb-23 19:08 UTC. Time now 2014-Apr-20 20:55 UTC.
Position N 41°48' W 070°27'.
Warning: this ship's position is 56 days out of date.

Type: Passenger vessel. MMSI: 338919000.

NotesDate/timePositionNaut miles runAvg speedWind from/ knotsBaromVisibWave heightAir tempDewpointWater temp
2014-Feb-23 19:08N 41°48' W 070°27'1 0.2
2014-Feb-23 12:29N 41°47' W 070°26'0 0.0
2014-Feb-23 11:28N 41°47' W 070°26'0 0.0
2014-Feb-23 04:33N 41°47' W 070°26'0 0.0
2014-Feb-23 03:32N 41°47' W 070°26'0 0.0
2014-Feb-23 02:21N 41°47' W 070°26'0 0.0
2014-Feb-23 01:29N 41°47' W 070°26'0 0.2
2014-Feb-23 00:23N 41°47' W 070°26'5 5.9
2014-Feb-22 23:33N 41°52' W 070°27'9 8.6
2014-Feb-22 22:33N 42°00' W 070°30'7 7.2
2014-Feb-22 21:33N 42°07' W 070°31'6 5.9
2014-Feb-22 20:33N 42°09' W 070°24'74 8.6
2014-Feb-22 12:00N 41°18' W 069°12'51 9.3 280 / 101014.0 0.5 4.4 1.9 4.4
2014-Feb-22 06:28N 40°30' W 068°47'1415.1
2014-Feb-22 05:33N 40°19' W 068°58'4216.5
2014-Feb-22 03:00N 39°42' W 069°24'21814.5 160 / 221012.0 12.811.8 7.8
2014-Feb-21 12:00N 37°00' W 072°30'16518.4 220 / 201019.010.8 1.020.618.022.2
2014-Feb-21 03:00N 34°54' W 074°42'23119.3 140 / 91022.010.8 0.522.218.922.2
2014-Feb-20 15:00N 31°54' W 077°36'28415.8 250 / 131024.0 0.522.218.022.2
2014-Feb-19 21:00N 27°30' W 079°36'5516.2 100 / 51020.027.0 22.815.822.8
2014-Feb-19 17:34N 26°36' W 079°48'1918.6
2014-Feb-19 16:33N 26°17' W 079°49'1817.6
2014-Feb-19 15:33N 25°60' W 079°53'1615.9
2014-Feb-19 14:34N 25°47' W 080°04'6 6.3
2014-Feb-19 13:33N 25°46' W 080°11'0 0.0
2014-Feb-19 12:33N 25°46' W 080°11'0 0.0
2014-Feb-19 11:33N 25°46' W 080°11'0 0.0
2014-Feb-19 10:33N 25°46' W 080°11'0 0.0
2014-Feb-19 09:33N 25°46' W 080°11'0 0.0
2014-Feb-19 08:33N 25°46' W 080°11'0 0.0
2014-Feb-19 07:33N 25°46' W 080°11'0 0.0
2014-Feb-19 06:33N 25°46' W 080°11'0 0.0
2014-Feb-19 05:33N 25°46' W 080°11'0 0.0
2014-Feb-19 04:33N 25°46' W 080°11'0 0.0
2014-Feb-19 03:33N 25°46' W 080°11'0 0.0
2014-Feb-19 02:33N 25°46' W 080°11'0 0.0
2014-Feb-19 01:34N 25°46' W 080°11'0 0.0
2014-Feb-19 00:33N 25°46' W 080°11'0 0.0
2014-Feb-18 23:34N 25°46' W 080°11'0 0.0
2014-Feb-18 22:33N 25°46' W 080°11'0 0.0
2014-Feb-18 21:33N 25°46' W 080°11'0 0.0
2014-Feb-18 20:33N 25°46' W 080°11'0 0.0
2014-Feb-18 19:33N 25°46' W 080°11'0 0.0
2014-Feb-18 18:33N 25°46' W 080°11'0 0.0
2014-Feb-18 17:33N 25°46' W 080°11'0 0.0
2014-Feb-18 16:34N 25°46' W 080°11'0 0.0
2014-Feb-18 15:35N 25°46' W 080°11'0 0.0
2014-Feb-18 14:33N 25°46' W 080°11'0 0.0
2014-Feb-18 13:33N 25°46' W 080°11'0 0.0
2014-Feb-18 12:33N 25°46' W 080°11'0 0.0
2014-Feb-18 11:33N 25°46' W 080°11'0 0.0
2014-Feb-18 10:33N 25°46' W 080°11'0 0.0
2014-Feb-18 09:33N 25°46' W 080°11'0 0.0
2014-Feb-18 08:33N 25°46' W 080°11'0 0.0
2014-Feb-18 07:34N 25°46' W 080°11'0 0.0
2014-Feb-18 06:33N 25°46' W 080°11'0 0.0
2014-Feb-18 05:33N 25°46' W 080°11'0 0.0
2014-Feb-18 04:33N 25°46' W 080°11'0 0.0
2014-Feb-18 03:33N 25°46' W 080°11'0 0.0
2014-Feb-18 02:33N 25°46' W 080°11'0 0.0
2014-Feb-18 01:33N 25°46' W 080°11'0 0.0
2014-Feb-18 00:33N 25°46' W 080°11'0 0.0
2014-Feb-17 23:34N 25°46' W 080°11'0 0.0
2014-Feb-17 22:33N 25°46' W 080°11'0 0.0
2014-Feb-17 21:34N 25°46' W 080°11'0 0.0
2014-Feb-17 20:33N 25°46' W 080°11'0 0.0
2014-Feb-17 19:34N 25°46' W 080°11'0 0.0
2014-Feb-17 18:33N 25°46' W 080°11'0 0.0
2014-Feb-17 17:33N 25°46' W 080°11'0 0.0
2014-Feb-17 16:33N 25°46' W 080°11'0 0.0
2014-Feb-17 15:33N 25°46' W 080°11'0 0.0
2014-Feb-17 14:33N 25°46' W 080°11'0 0.0
2014-Feb-17 13:34N 25°46' W 080°11'0 0.0
2014-Feb-17 12:34N 25°46' W 080°11'0 0.0
2014-Feb-17 11:33N 25°46' W 080°11'0 0.0
2014-Feb-17 10:33N 25°46' W 080°11'0 0.0
2014-Feb-17 09:33N 25°46' W 080°11'0 0.0
2014-Feb-17 08:33N 25°46' W 080°11'0 0.0
2014-Feb-17 06:34N 25°46' W 080°11'0 0.0
2014-Feb-17 05:34N 25°46' W 080°11'0 0.0
2014-Feb-17 04:33N 25°46' W 080°11'0 0.0
2014-Feb-17 03:33N 25°46' W 080°11'0 0.0
2014-Feb-17 02:34N 25°46' W 080°11'0 0.0
2014-Feb-17 01:33N 25°46' W 080°11'0 0.0
2014-Feb-17 00:33N 25°46' W 080°11'0 0.0
2014-Feb-16 23:33N 25°46' W 080°11'0 0.0
2014-Feb-16 22:33N 25°46' W 080°11'0 0.0
2014-Feb-16 21:33N 25°46' W 080°11'0 0.0
2014-Feb-16 20:33N 25°46' W 080°11'0 0.0
2014-Feb-16 18:33N 25°46' W 080°11'0 0.0
2014-Feb-16 17:33N 25°46' W 080°11'0 0.0
2014-Feb-16 16:33N 25°46' W 080°11'0 0.0
2014-Feb-16 15:34N 25°46' W 080°11'0 0.0
2014-Feb-16 14:33N 25°46' W 080°11'0 0.0
2014-Feb-16 13:33N 25°46' W 080°11'0 0.0
2014-Feb-16 12:33N 25°46' W 080°11'6 6.4
2014-Feb-16 11:33N 25°47' W 080°04'10 9.7
2014-Feb-16 10:33N 25°52' W 079°54'8 7.8
2014-Feb-16 09:32N 25°44' W 079°53'1111.0
2014-Feb-16 08:33N 25°33' W 079°55'3814.6
2014-Feb-16 06:00N 25°00' W 079°36'19 6.3 1020.0 20.614.4
2014-Feb-16 03:00N 24°42' W 079°30'81 9.0 290 / 15 0.520.615.225.0
2014-Feb-15 18:00N 23°24' W 079°06'69 7.7 300 / 101019.010.8 0.526.119.724.4
2014-Feb-15 09:00N 22°36' W 078°12'21010.0 270 / 61016.010.8 23.922.326.1
2014-Feb-14 12:00N 20°54' W 074°54'3110.2 240 / 61014.010.8 0.525.022.626.7
2014-Feb-14 09:00N 20°42' W 074°24'54 9.0 160 / 61013.7 0.525.021.926.7
2014-Feb-14 03:00N 20°00' W 073°48'6611.1 310 / 71014.010.8 0.525.021.926.7
2014-Feb-13 21:00N 19°00' W 074°18'   010 / 51013.0 0.528.321.226.7

Dump ship's entire track history

sailing weather and tide predictions

USTS Kennedy — KVMU — position and weather